DK9XR-14 Weather Reports


Display with metric or nautical units.
time (UTC)temp
F
wind
direction
speed
MPH
gust
MPH
rain 1hr
in
rain 24hr
in
rain mn
in
humidity
%
barometer
mb
20260506062404 53 220 1.0 3.0 0.00 0.01 0.00 85 1008.1
20260506061903 52 203 1.0 3.0 0.00 0.01 0.00 85 1008.2
20260506061402 52 210 1.0 4.0 0.00 0.01 0.00 86 1008.3
20260506060903 52 244 2.0 4.0 0.00 0.01 0.00 86 1008.5
20260506060403 52 202 1.0 5.0 0.00 0.01 0.00 87 1008.3
20260506051402 48 226 0.0 2.0 0.00 0.01 0.00 92 1008.3
20260506050901 48 219 0.0 2.0 0.00 0.01 0.00 93 1008.5
20260506050404 48 148 1.0 1.0 0.00 0.01 0.00 93 1008.6
20260506044859 47 168 0.0 1.0 0.00 0.01 0.00 93 1008.6
20260506044357 47 161 0.0 1.0 0.00 0.01 0.00 93 1008.5
20260506043857 46 161 0.0 0.0 0.00 0.01 0.00 93 1008.6
20260506043357 46 204 0.0 0.0 0.00 0.01 0.00 93 1008.6
20260506042855 46 204 0.0 0.0 0.00 0.01 0.00 93 1008.7
20260506042358 46 204 0.0 0.0 0.00 0.01 0.00 93 1008.8
20260506041851 46 204 0.0 0.0 0.00 0.01 0.00 92 1008.8
20260506041355 47 204 0.0 1.0 0.00 0.01 0.00 92 1008.9
20260506040855 47 204 0.0 1.0 0.00 0.01 0.00 93 1008.8
20260506040355 47 197 0.0 1.0 0.00 0.01 0.00 93 1008.9
20260506035852 47 196 0.0 0.0 0.00 0.01 0.00 93 1009.0
20260506035350 47 197 0.0 0.0 0.00 0.01 0.00 93 1009.0
20260506034853 47 196 0.0 0.0 0.00 0.01 0.00 92 1009.1
20260506034350 47 196 0.0 2.0 0.00 0.01 0.00 92 1009.1
20260506033849 47 197 0.0 3.0 0.00 0.01 0.00 92 1009.1
20260506033349 47 196 1.0 3.0 0.00 0.01 0.00 92 1009.2
20260506032848 47 152 0.0 2.0 0.00 0.01 0.00 92 1009.2
20260506032348 47 166 0.0 1.0 0.00 0.01 0.00 92 1009.1
20260506031849 47 149 0.0 2.0 0.00 0.01 0.00 92 1009.2
20260506031345 47 138 1.0 2.0 0.00 0.01 0.00 92 1009.1
20260506030844 47 155 0.0 2.0 0.00 0.01 0.00 92 1009.2
20260506030345 47 172 1.0 2.0 0.00 0.01 0.00 92 1009.2
20260506025843 47 157 1.0 2.0 0.00 0.01 0.00 92 1009.2
20260506025342 47 171 0.0 2.0 0.00 0.01 0.00 92 1009.3
20260506024839 47 165 0.0 3.0 0.00 0.01 0.00 92 1009.3
20260506024337 47 169 1.0 3.0 0.00 0.01 0.00 92 1009.3
20260506023839 47 164 1.0 2.0 0.00 0.01 0.00 92 1009.3
20260506023338 47 162 0.0 1.0 0.00 0.01 0.00 92 1009.3
20260506022836 47 162 0.0 2.0 0.00 0.01 0.00 92 1009.4
20260506022333 47 154 0.0 3.0 0.00 0.01 0.00 92 1009.5
20260506021335 47 157 2.0 3.0 0.00 0.01 0.00 91 1009.6
20260506020834 47 155 0.0 2.0 0.00 0.01 0.00 91 1009.5
20260506020332 48 196 0.0 2.0 0.00 0.01 0.00 91 1009.4
20260506015831 48 214 0.0 3.0 0.00 0.01 0.00 91 1009.4
20260506015332 48 164 2.0 3.0 0.00 0.01 0.00 91 1009.4
20260506014832 48 159 1.0 2.0 0.00 0.01 0.00 91 1009.4
20260506014331 49 234 0.0 2.0 0.00 0.01 0.00 91 1009.5
20260506013831 49 245 0.0 2.0 0.00 0.01 0.00 92 1009.4
20260506013330 48 250 1.0 2.0 0.00 0.01 0.00 92 1009.4
20260506012830 48 251 0.0 1.0 0.00 0.01 0.00 91 1009.6
20260506012333 48 251 0.0 1.0 0.00 0.01 0.00 91 1009.7
20260506011829 49 226 0.0 1.0 0.00 0.01 0.00 91 1009.7
20260506011330 49 203 0.0 1.0 0.00 0.01 0.00 91 1009.8
20260506010830 49 203 0.0 1.0 0.00 0.01 0.00 91 1009.8
20260506010329 49 200 0.0 0.0 0.00 0.01 0.00 91 1009.8
20260506005829 49 200 0.0 2.0 0.00 0.01 0.00 91 1009.7
20260506005330 49 200 0.0 2.0 0.00 0.01 0.00 91 1009.8
20260506004830 49 230 1.0 3.0 0.00 0.01 0.00 91 1009.8
20260506004330 49 207 1.0 3.0 0.00 0.01 0.00 90 1009.8
20260506003828 49 230 1.0 2.0 0.00 0.01 0.00 90 1009.7
20260506003332 49 243 0.0 1.0 0.00 0.01 0.00 90 1009.7
20260506002828 49 237 0.0 1.0 0.00 0.01 0.00 90 1009.7
20260506002321 49 254 0.0 2.0 0.00 0.01 0.00 90 1009.8
20260506001823 49 255 0.0 2.0 0.00 0.01 0.00 90 1009.9
20260506001322 49 243 2.0 3.0 0.00 0.01 0.00 90 1009.9
20260506000820 49 243 1.0 3.0 0.00 0.01 0.00 90 1010.0
20260506000322 49 240 1.0 2.0 0.00 0.01 0.00 89 1010.1
20260505235819 50 252 2.0 2.0 0.00 0.01 0.00 89 1010.0
20260505235318 50 241 1.0 1.0 0.00 0.01 0.00 89 1010.1
20260505234814 50 279 0.0 1.0 0.00 0.01 0.00 88 1010.1
20260505234313 50 279 1.0 3.0 0.00 0.01 0.00 89 1010.2
20260505233811 50 250 1.0 3.0 0.00 0.01 0.00 89 1010.2
20260505233307 50 248 1.0 2.0 0.00 0.01 0.00 89 1010.3
20260505232804 50 231 0.0 2.0 0.00 0.01 0.00 88 1010.3
20260505232305 50 247 0.0 3.0 0.00 0.01 0.00 88 1010.2
20260505231802 50 248 0.0 3.0 0.00 0.01 0.00 88 1010.2
20260505231304 51 248 1.0 3.0 0.00 0.01 0.00 87 1010.3
20260505230803 51 258 1.0 3.0 0.00 0.01 0.00 87 1010.4
20260505230303 51 245 0.0 3.0 0.00 0.01 0.00 87 1010.4
20260505225804 51 252 1.0 2.0 0.00 0.01 0.00 86 1010.6
20260505225305 52 251 0.0 2.0 0.00 0.01 0.00 86 1010.6
20260505224801 52 244 0.0 2.0 0.00 0.01 0.00 86 1010.6
20260505224301 52 244 1.0 2.0 0.00 0.01 0.00 85 1010.6
20260505223802 52 252 0.0 2.0 0.00 0.01 0.00 85 1010.4
20260505223302 53 262 1.0 3.0 0.00 0.01 0.00 85 1010.4
20260505222802 53 231 2.0 4.0 0.00 0.01 0.00 84 1010.4
20260505222305 53 271 2.0 4.0 0.00 0.01 0.00 84 1010.4
20260505221812 53 220 0.0 4.0 0.00 0.01 0.00 84 1010.4
20260505221312 53 274 1.0 4.0 0.00 0.01 0.00 84 1010.4
20260505220814 53 281 1.0 5.0 0.00 0.01 0.00 83 1010.4
20260505220308 54 259 1.0 6.0 0.00 0.01 0.00 83 1010.6
20260505215759 54 283 2.0 7.0 0.00 0.01 0.01 83 1010.4
20260505215309 54 264 2.0 7.0 0.00 0.01 0.01 83 1010.4
20260505214757 54 251 2.0 6.0 0.00 0.01 0.01 83 1010.4
20260505214301 54 248 2.0 6.0 0.00 0.01 0.01 83 1010.3
20260505213801 54 209 3.0 6.0 0.00 0.01 0.01 83 1010.3
20260505213306 54 261 2.0 7.0 0.00 0.01 0.01 82 1010.2
20260505212802 55 266 3.0 9.0 0.00 0.01 0.01 82 1010.3
20260505212246 55 296 3.0 10.0 0.00 0.01 0.01 82 1010.2
20260505211745 55 268 3.0 10.0 0.00 0.01 0.01 82 1010.1
20260505211246 55 266 4.0 12.0 0.00 0.01 0.01 81 1010.1
20260505210744 55 231 4.0 12.0 0.00 0.01 0.01 81 1010.1
20260505210242 55 254 2.0 9.0 0.00 0.01 0.01 82 1010.0
20260505205743 55 203 2.0 9.0 0.00 0.01 0.01 81 1010.0
20260505205237 55 157 3.0 9.0 0.00 0.01 0.01 82 1010.1
20260505204737 56 261 3.0 9.0 0.00 0.01 0.01 81 1010.2
20260505204238 56 212 2.0 6.0 0.00 0.01 0.01 81 1010.1
20260505203734 56 220 1.0 7.0 0.00 0.01 0.01 81 1010.2
20260505203234 56 289 4.0 7.0 0.00 0.01 0.01 80 1010.2
20260505202736 56 310 3.0 9.0 0.00 0.01 0.01 81 1010.2
20260505202234 56 237 3.0 9.0 0.00 0.01 0.01 80 1010.3
20260505201732 56 283 2.0 10.0 0.00 0.01 0.01 81 1010.3
20260505201233 56 234 4.0 10.0 0.00 0.01 0.01 80 1010.3
20260505200732 57 220 2.0 10.0 0.00 0.01 0.01 80 1010.3
20260505200229 57 261 3.0 12.0 0.00 0.01 0.01 79 1010.3
20260505195729 58 244 5.0 12.0 0.00 0.01 0.01 77 1010.3
20260505195230 59 299 7.0 19.0 0.00 0.01 0.01 74 1010.2
20260505194729 59 289 9.0 19.0 0.00 0.01 0.01 73 1010.1
20260505194229 60 300 6.0 16.0 0.00 0.01 0.01 72 1010.1
20260505193732 60 266 7.0 15.0 0.00 0.01 0.01 70 1009.8
20260505193220 60 276 3.0 7.0 0.00 0.01 0.01 70 1009.7
20260505192719 60 293 1.0 5.0 0.00 0.01 0.01 70 1009.6
20260505192220 60 257 1.0 6.0 0.00 0.01 0.01 70 1009.5
20260505191717 60 283 3.0 6.0 0.00 0.01 0.01 70 1009.3
20260505191217 59 265 2.0 6.0 0.00 0.01 0.01 71 1009.2
20260505190718 59 272 0.0 2.0 0.00 0.01 0.01 71 1009.2
20260505190218 59 235 1.0 2.0 0.00 0.01 0.01 71 1009.1
20260505185716 59 243 0.0 2.0 0.00 0.01 0.01 72 1009.2
20260505185216 59 257 0.0 2.0 0.00 0.01 0.01 72 1009.1
20260505184714 60 248 0.0 1.0 0.00 0.01 0.01 72 1009.1
20260505184211 60 248 0.0 1.0 0.00 0.01 0.01 72 1009.0
20260505183710 60 250 0.0 1.0 0.00 0.01 0.01 71 1009.0
20260505183213 60 250 0.0 1.0 0.00 0.01 0.01 70 1009.0
20260505182710 60 250 0.0 1.0 0.00 0.01 0.01 70 1009.0
20260505182212 60 250 0.0 1.0 0.00 0.01 0.01 69 1008.9
20260505181709 61 250 0.0 1.0 0.00 0.01 0.01 68 1008.9
20260505181208 61 259 0.0 2.0 0.00 0.01 0.01 68 1008.8
20260505180704 61 302 0.0 2.0 0.00 0.01 0.01 68 1008.6
20260505180204 61 278 1.0 2.0 0.00 0.01 0.01 67 1008.6
20260505175701 61 272 0.0 3.0 0.00 0.01 0.01 67 1008.6
20260505175203 61 309 2.0 3.0 0.00 0.01 0.01 66 1008.8
20260505174702 62 252 0.0 3.0 0.00 0.01 0.01 66 1008.7
20260505174203 62 264 2.0 3.0 0.00 0.01 0.01 66 1008.6
20260505173701 62 312 1.0 3.0 0.00 0.01 0.01 66 1008.6
20260505173201 62 307 1.0 4.0 0.00 0.01 0.01 64 1008.5
20260505172701 62 310 2.0 4.0 0.00 0.01 0.01 65 1008.5
20260505172200 62 323 1.0 3.0 0.00 0.01 0.01 64 1008.5
20260505171701 62 299 1.0 3.0 0.00 0.01 0.01 64 1008.3
20260505171200 62 290 1.0 3.0 0.00 0.01 0.01 64 1008.3
20260505170702 62 276 1.0 4.0 0.00 0.01 0.01 62 1008.3
20260505170159 63 310 2.0 4.0 0.00 0.01 0.01 60 1008.2
20260505165659 63 305 2.0 5.0 0.00 0.01 0.01 61 1008.1
20260505165200 64 25 3.0 5.0 0.00 0.01 0.01 60 1008.1
20260505164700 64 48 0.0 2.0 0.00 0.01 0.01 61 1008.2
20260505164156 64 286 0.0 3.0 0.00 0.01 0.01 60 1008.3
20260505163657 64 343 1.0 3.0 0.00 0.01 0.01 61 1008.7
20260505163154 63 285 1.0 3.0 0.00 0.01 0.01 62 1008.7
20260505162653 63 292 1.0 3.0 0.00 0.01 0.01 60 1008.7
20260505162151 62 330 1.0 5.0 0.00 0.01 0.01 61 1008.6
20260505161651 62 255 3.0 5.0 0.00 0.01 0.01 62 1008.7
20260505161151 63 310 2.0 4.0 0.00 0.01 0.01 62 1008.7
20260505160650 63 307 2.0 4.0 0.00 0.01 0.01 62 1008.7
20260505160152 63 288 1.0 4.0 0.00 0.01 0.01 62 1008.7
20260505153142 62 319 4.0 7.0 0.00 0.01 0.01 62 1008.6
20260505152641 62 296 2.0 6.0 0.00 0.01 0.01 65 1008.7
20260505152139 62 276 2.0 6.0 0.00 0.01 0.01 66 1008.8
20260505151640 62 312 2.0 5.0 0.00 0.01 0.01 65 1008.7
20260505151138 62 13 2.0 9.0 0.00 0.01 0.01 65 1008.6
20260505150636 62 345 1.0 9.0 0.00 0.01 0.01 66 1008.7
20260505150138 62 44 4.0 7.0 0.00 0.01 0.01 65 1008.7
20260505140629 63 324 2.0 5.0 0.00 0.01 0.01 68 1008.7
20260505140130 63 353 2.0 6.0 0.00 0.01 0.01 70 1008.8
20260505130112 61 303 2.0 4.0 0.01 0.01 0.01 78 1009.5
20260505124606 61 290 2.0 5.0 0.01 0.00 0.01 76 1009.6
20260505124104 61 289 2.0 6.0 0.01 0.00 0.01 74 1009.7
20260505123605 62 299 4.0 7.0 0.01 0.00 0.01 73 1009.7
20260505123103 63 264 2.0 7.0 0.00 0.00 0.00 72 1009.8
20260505122603 64 307 4.0 9.0 0.00 0.00 0.00 66 1009.8
20260505122104 65 326 4.0 9.0 0.00 0.00 0.00 60 1009.7
20260505121601 65 282 4.0 9.0 0.00 0.00 0.00 58 1009.7
20260505121102 65 266 2.0 6.0 0.00 0.00 0.00 58 1009.5
20260505120602 66 261 2.0 6.0 0.00 0.00 0.00 59 1009.5
20260505115602 66 303 4.0 9.0 0.00 0.00 0.00 57 1009.3
20260505115101 65 312 6.0 9.0 0.00 0.00 0.00 60 1009.4
20260505114603 65 293 5.0 7.0 0.00 0.00 0.00 63 1009.3
20260505114101 65 292 4.0 7.0 0.00 0.00 0.00 62 1009.2
20260505113603 65 283 3.0 5.0 0.00 0.00 0.00 64 1009.2
20260505113101 65 268 2.0 6.0 0.00 0.00 0.00 65 1009.3
20260505112600 65 290 4.0 6.0 0.00 0.00 0.00 65 1009.2
20260505112101 65 275 3.0 6.0 0.00 0.00 0.00 65 1009.1
20260505111601 65 319 2.0 6.0 0.00 0.00 0.00 67 1009.1
20260505111100 65 302 3.0 6.0 0.00 0.00 0.00 67 1009.0
20260505110600 65 310 4.0 6.0 0.00 0.00 0.00 66 1009.1
20260505102100 66 312 4.0 6.0 0.00 0.00 0.00 59 1009.3
20260505101601 66 299 3.0 5.0 0.00 0.00 0.00 58 1009.3
20260505101101 67 27 3.0 4.0 0.00 0.00 0.00 57 1009.3
20260505100601 67 305 1.0 4.0 0.00 0.00 0.00 58 1009.4
20260505100101 67 345 2.0 7.0 0.00 0.00 0.00 59 1009.4
20260505095600 67 309 4.0 7.0 0.00 0.00 0.00 57 1009.4
20260505095100 67 309 2.0 7.0 0.00 0.00 0.00 59 1009.5
20260505094601 67 0 4.0 7.0 0.00 0.00 0.00 59 1009.4
20260505094101 67 324 3.0 6.0 0.00 0.00 0.00 59 1009.5
20260505093602 66 148 1.0 3.0 0.00 0.00 0.00 61 1009.6
20260505093100 66 78 1.0 2.0 0.00 0.00 0.00 61 1009.6
20260505092602 65 18 0.0 4.0 0.00 0.00 0.00 62 1009.7
20260505092100 65 316 1.0 4.0 0.00 0.00 0.00 64 1009.7
20260505091600 64 312 2.0 4.0 0.00 0.00 0.00 65 1009.8
20260505091102 64 142 0.0 3.0 0.00 0.00 0.00 66 1009.8
20260505090101 63 161 1.0 4.0 0.00 0.00 0.00 67 1009.8
20260505085600 63 159 2.0 4.0 0.00 0.00 0.00 66 1009.9
20260505085102 63 144 3.0 4.0 0.00 0.00 0.00 66 1009.8
20260505084600 63 251 1.0 4.0 0.00 0.00 0.00 68 1009.9
20260505084102 63 159 2.0 4.0 0.00 0.00 0.00 67 1010.0
20260505083601 63 243 2.0 6.0 0.00 0.00 0.00 68 1010.1
20260505083101 62 157 2.0 6.0 0.00 0.00 0.00 69 1010.1
20260505082559 63 159 2.0 4.0 0.00 0.00 0.00 68 1010.1
20260505082101 62 274 1.0 2.0 0.00 0.00 0.00 69 1010.0
20260505081600 62 148 0.0 4.0 0.00 0.00 0.00 70 1010.1
20260505081101 61 120 0.0 4.0 0.00 0.00 0.00 71 1010.1
20260505080601 61 226 2.0 3.0 0.00 0.00 0.00 70 1010.1
20260505080100 60 175 1.0 3.0 0.00 0.00 0.00 71 1010.1
20260505075600 60 238 0.0 2.0 0.00 0.00 0.00 72 1010.1
20260505075100 60 193 1.0 2.0 0.00 0.00 0.00 74 1010.2
20260505074601 59 135 0.0 1.0 0.00 0.00 0.00 75 1010.3
20260505074100 59 138 0.0 2.0 0.00 0.00 0.00 76 1010.3
20260505073602 59 72 0.0 2.0 0.00 0.00 0.00 75 1010.4
20260505073059 59 61 2.0 2.0 0.00 0.00 0.00 74 1010.3
20260505072602 59 166 0.0 2.0 0.00 0.00 0.00 75 1010.4
20260505072100 59 190 0.0 4.0 0.00 0.00 0.00 75 1010.6
20260505071602 59 158 3.0 4.0 0.00 0.00 0.00 75 1010.6
20260505071100 59 175 2.0 4.0 0.00 0.00 0.00 75 1010.6
20260505070602 58 165 1.0 5.0 0.00 0.00 0.00 76 1010.6
20260505070101 58 155 4.0 6.0 0.00 0.00 0.00 77 1010.8